When you browse on this site, cookies collect data to enhance your experience and personalize the content and advertising you see.
Visit our Privacy Policy to learn more. By continuing to use the site, you agree to this use of cookies and data.
  • In Deutschland
  • Länderverzeichnis
  • Für 7 Tage
  • Wassertemperatur
  • Satellitenkarten
  • Wetterkarte
  • Widgets
  • user-avatar
    Anmelden

    Stündliche Wetter Gloucester

    Heute, 16 Dezember, Sonntag

    Zeit Temperatur Niederschläge Wind Luftdruck Luftfeuchtigkeit
    00:00 +5°C° 0 mm 4 m/S 745 mmHg 86%
    01:00 +4°C° 0 mm 4 m/S 745 mmHg 87%
    02:00 +4°C° 0 mm 4 m/S 746 mmHg 89%
    03:00 +4°C° 0 mm 4 m/S 746 mmHg 90%
    04:00 +4°C° 0 mm 4 m/S 747 mmHg 90%
    05:00 +3°C° 0 mm 4 m/S 747 mmHg 90%
    06:00 +3°C° 0 mm 3 m/S 747 mmHg 91%
    07:00 +3°C° 0 mm 3 m/S 747 mmHg 91%
    08:00 +3°C° 0 mm 3 m/S 748 mmHg 91%
    09:00 +3°C° 0 mm 3 m/S 748 mmHg 92%
    10:00 +4°C° 0 mm 3 m/S 748 mmHg 89%
    11:00 +7°C° 0 mm 3 m/S 748 mmHg 86%
    12:00 +7°C° 0 mm 4 m/S 747 mmHg 84%
    13:00 +6°C° 0.3 mm 4 m/S 747 mmHg 86%
    14:00 +6°C° 0.3 mm 4 m/S 746 mmHg 88%
    15:00 +6°C° 0.3 mm 4 m/S 746 mmHg 90%
    16:00 +6°C° 1.3 mm 4 m/S 746 mmHg 92%
    17:00 +6°C° 1.3 mm 4 m/S 746 mmHg 94%
    18:00 +6°C° 1.3 mm 4 m/S 746 mmHg 96%
    19:00 +6°C° 0.4 mm 5 m/S 746 mmHg 94%
    20:00 +6°C° 0.4 mm 5 m/S 747 mmHg 92%
    21:00 +6°C° 0.4 mm 5 m/S 747 mmHg 90%
    22:00 +5°C° 0 mm 5 m/S 748 mmHg 90%
    23:00 +5°C° 0 mm 5 m/S 749 mmHg 89%

    Morgen, 17 Dezember, Montag

    Zeit Temperatur Niederschläge Wind Luftdruck Luftfeuchtigkeit
    00:00 +5°C° 0 mm 5 m/S 750 mmHg 88%
    01:00 +4°C° 0 mm 4 m/S 751 mmHg 89%
    02:00 +4°C° 0 mm 4 m/S 751 mmHg 89%
    03:00 +4°C° 0 mm 4 m/S 752 mmHg 90%
    04:00 +4°C° 0 mm 4 m/S 753 mmHg 90%
    05:00 +3°C° 0 mm 3 m/S 753 mmHg 91%
    06:00 +3°C° 0 mm 3 m/S 754 mmHg 91%
    07:00 +3°C° 0 mm 3 m/S 755 mmHg 91%
    08:00 +3°C° 0 mm 3 m/S 755 mmHg 91%
    09:00 +3°C° 0 mm 3 m/S 756 mmHg 91%
    10:00 +5°C° 0 mm 4 m/S 756 mmHg 88%
    11:00 +6°C° 0 mm 4 m/S 756 mmHg 84%
    12:00 +8°C° 0 mm 5 m/S 756 mmHg 80%
    13:00 +8°C° 0 mm 5 m/S 756 mmHg 82%
    14:00 +7°C° 0 mm 4 m/S 756 mmHg 84%
    15:00 +7°C° 0 mm 4 m/S 756 mmHg 86%
    16:00 +7°C° 0 mm 5 m/S 756 mmHg 88%
    17:00 +7°C° 0 mm 5 m/S 756 mmHg 90%
    18:00 +7°C° 0 mm 6 m/S 756 mmHg 92%
    19:00 +7°C° 0.1 mm 6 m/S 755 mmHg 92%
    20:00 +8°C° 0.1 mm 6 m/S 755 mmHg 92%
    21:00 +8°C° 0.1 mm 7 m/S 755 mmHg 91%
    22:00 +9°C° 0 mm 7 m/S 755 mmHg 90%
    23:00 +9°C° 0 mm 7 m/S 754 mmHg 90%

    übermorgen, 18 Dezember, Dienstag

    Zeit Temperatur Niederschläge Wind Luftdruck Luftfeuchtigkeit
    00:00 +9°C° 0 mm 8 m/S 754 mmHg 89%
    01:00 +9°C° 0.1 mm 8 m/S 754 mmHg 88%
    02:00 +9°C° 0.1 mm 8 m/S 753 mmHg 88%
    03:00 +9°C° 0.1 mm 8 m/S 753 mmHg 87%
    04:00 +9°C° 0.1 mm 8 m/S 752 mmHg 87%
    05:00 +9°C° 0.1 mm 8 m/S 751 mmHg 86%
    06:00 +9°C° 0.1 mm 8 m/S 751 mmHg 86%
    07:00 +7°C° 0.1 mm 9 m/S 750 mmHg 85%
    08:00 +7°C° 0.1 mm 9 m/S 749 mmHg 84%
    09:00 +7°C° 0.1 mm 10 m/S 748 mmHg 83%
    10:00 +7°C° 0.4 mm 10 m/S 747 mmHg 82%
    11:00 +7°C° 0.4 mm 10 m/S 747 mmHg 81%
    12:00 +7°C° 0.4 mm 11 m/S 746 mmHg 80%
    13:00 +6°C° 1 mm 10 m/S 745 mmHg 82%
    14:00 +6°C° 1 mm 10 m/S 744 mmHg 84%
    15:00 +6°C° 1 mm 10 m/S 744 mmHg 86%
    16:00 +6°C° 1.8 mm 9 m/S 743 mmHg 88%
    17:00 +6°C° 1.8 mm 8 m/S 743 mmHg 89%
    18:00 +6°C° 1.8 mm 7 m/S 743 mmHg 91%
    19:00 +7°C° 0.8 mm 6 m/S 744 mmHg 90%
    20:00 +6°C° 0.8 mm 5 m/S 744 mmHg 90%
    21:00 +6°C° 0.8 mm 4 m/S 744 mmHg 89%
    22:00 +6°C° 0 mm 4 m/S 745 mmHg 90%
    23:00 +5°C° 0 mm 4 m/S 745 mmHg 91%

    19 Dezember, Mittwoch

    Zeit Temperatur Niederschläge Wind Luftdruck Luftfeuchtigkeit
    00:00 +5°C° 0 mm 4 m/S 746 mmHg 92%
    01:00 +5°C° 0.1 mm 4 m/S 746 mmHg 92%
    02:00 +5°C° 0.1 mm 3 m/S 747 mmHg 93%
    03:00 +5°C° 0.1 mm 3 m/S 747 mmHg 93%
    04:00 +4°C° 0.1 mm 3 m/S 747 mmHg 93%
    05:00 +4°C° 0.1 mm 3 m/S 747 mmHg 93%
    06:00 +4°C° 0.1 mm 3 m/S 747 mmHg 93%
    07:00 +5°C° 0 mm 2 m/S 748 mmHg 92%
    08:00 +5°C° 0 mm 2 m/S 748 mmHg 91%
    09:00 +5°C° 0 mm 2 m/S 748 mmHg 90%
    10:00 +5°C° 0 mm 3 m/S 749 mmHg 86%
    11:00 +6°C° 0 mm 4 m/S 749 mmHg 82%
    12:00 +7°C° 0 mm 4 m/S 749 mmHg 78%
    13:00 +7°C° 0 mm 4 m/S 749 mmHg 80%
    14:00 +6°C° 0 mm 4 m/S 749 mmHg 81%
    15:00 +6°C° 0 mm 4 m/S 749 mmHg 82%
    16:00 +5°C° 0 mm 4 m/S 749 mmHg 84%
    17:00 +5°C° 0 mm 4 m/S 749 mmHg 85%
    18:00 +4°C° 0 mm 4 m/S 749 mmHg 87%
    19:00 +5°C° 0.1 mm 4 m/S 748 mmHg 87%
    20:00 +5°C° 0.1 mm 4 m/S 748 mmHg 87%
    21:00 +5°C° 0.1 mm 4 m/S 748 mmHg 87%
    22:00 +5°C° 0.1 mm 4 m/S 748 mmHg 87%
    23:00 +4°C° 0.1 mm 4 m/S 748 mmHg 88%

    20 Dezember, Donnerstag

    Zeit Temperatur Niederschläge Wind Luftdruck Luftfeuchtigkeit
    00:00 +3°C° 0.1 mm 5 m/S 748 mmHg 88%
    01:00 +4°C° 0 mm 4 m/S 748 mmHg 88%
    02:00 +4°C° 0 mm 4 m/S 748 mmHg 89%
    03:00 +4°C° 0 mm 4 m/S 748 mmHg 89%
    04:00 +3°C° 0.2 mm 5 m/S 748 mmHg 89%
    05:00 +3°C° 0.2 mm 5 m/S 748 mmHg 89%
    06:00 +5°C° 0.2 mm 5 m/S 748 mmHg 89%
    07:00 +5°C° 0.1 mm 5 m/S 748 mmHg 90%
    08:00 +5°C° 0.1 mm 5 m/S 748 mmHg 90%
    09:00 +5°C° 0.1 mm 5 m/S 749 mmHg 90%
    10:00 +6°C° 0.1 mm 5 m/S 749 mmHg 86%
    11:00 +7°C° 0.1 mm 6 m/S 749 mmHg 83%
    12:00 +8°C° 0.1 mm 6 m/S 750 mmHg 79%
    13:00 +7°C° 0.1 mm 6 m/S 750 mmHg 79%
    14:00 +7°C° 0.1 mm 5 m/S 750 mmHg 80%
    15:00 +7°C° 0.1 mm 5 m/S 750 mmHg 80%
    16:00 +6°C° 0.1 mm 4 m/S 750 mmHg 82%
    17:00 +6°C° 0.1 mm 4 m/S 750 mmHg 83%
    18:00 +5°C° 0.1 mm 4 m/S 751 mmHg 85%
    19:00 +5°C° 0.1 mm 4 m/S 751 mmHg 86%
    20:00 +5°C° 0.1 mm 4 m/S 751 mmHg 88%
    21:00 +5°C° 0.1 mm 3 m/S 751 mmHg 90%
    22:00 +4°C° 0 mm 3 m/S 751 mmHg 90%
    23:00 +4°C° 0 mm 3 m/S 751 mmHg 91%

    21 Dezember, Freitag

    Zeit Temperatur Niederschläge Wind Luftdruck Luftfeuchtigkeit
    00:00 +4°C° 0 mm 3 m/S 751 mmHg 92%
    01:00 +5°C° 0 mm 2 m/S 750 mmHg 92%
    02:00 +5°C° 0 mm 2 m/S 750 mmHg 92%
    03:00 +5°C° 0 mm 2 m/S 749 mmHg 92%
    04:00 +4°C° 0.4 mm 3 m/S 748 mmHg 92%
    05:00 +4°C° 0.4 mm 4 m/S 748 mmHg 92%
    06:00 +5°C° 0.4 mm 5 m/S 747 mmHg 92%
    07:00 +5°C° 1 mm 5 m/S 746 mmHg 93%
    08:00 +6°C° 1 mm 5 m/S 745 mmHg 94%
    09:00 +7°C° 1 mm 5 m/S 745 mmHg 96%
    10:00 +8°C° 0.2 mm 6 m/S 745 mmHg 92%
    11:00 +8°C° 0.2 mm 7 m/S 745 mmHg 88%
    12:00 +9°C° 0.2 mm 8 m/S 746 mmHg 84%
    13:00 +9°C° 0 mm 8 m/S 746 mmHg 83%
    14:00 +8°C° 0 mm 7 m/S 747 mmHg 82%
    15:00 +8°C° 0 mm 6 m/S 748 mmHg 81%
    16:00 +7°C° 0 mm 5 m/S 748 mmHg 84%
    17:00 +7°C° 0 mm 5 m/S 749 mmHg 88%
    18:00 +6°C° 0 mm 4 m/S 749 mmHg 91%
    19:00 +6°C° 0.3 mm 5 m/S 749 mmHg 92%
    20:00 +7°C° 0.3 mm 6 m/S 749 mmHg 92%
    21:00 +7°C° 0.3 mm 6 m/S 749 mmHg 92%
    22:00 +6°C° 0.4 mm 7 m/S 749 mmHg 90%
    23:00 +8°C° 0.4 mm 7 m/S 748 mmHg 88%
    Mehr zeigen